Location: Rio Negrinho
(26.2394°S, 49.4999°W)
Time: 13:13:15
(UTC+00:00)

NOAA 6 - Pass Details

Date: 05 October 2020
Orbit: 773 x 786 km, 98.7° (Epoch: 26 October)

Event Time Altitude Azimuth Distance (km) Brightness Sun altitude
Rises 22:07:58 0° 189° (S) 3,275 7.6 -11.4°
Reaches altitude 10° 22:10:56 10° 207° (SSW) 2,341 7.1 -12.1°
Maximum altitude 22:14:23 18° 249° (WSW) 1,824 7.1 -12.8°
Drops below altitude 10° 22:17:49 10° 291° (WNW) 2,328 7.4 -13.6°
Sets 22:20:47 0° 309° (NW) 3,250 7.8 -14.2°
